QPF
0.00 0.00 0.00 0.00 0.00 0.00 0.01 0.01 0.00 0.00 0.01 0.01 0.01 0.01 0.01 0.01 0.00 0.01 0.01 0.03 0.05 0.05 0.03 0.03 0.03 0.03 0.02 0.02 0.02 0.04 0.04 0.04 0.03 0.03 0.02 0.01 0.00 0.00 0.00 0.00 0.00 0.01 0.01
0.00 0.00 0.00 0.00 0.00 0.00 0.00 0.01 0.01 0.00 0.00 0.00 0.00 0.00 0.01 0.01 0.01 0.00 0.01 0.02 0.03 0.05 0.05 0.04 0.03 0.03 0.03 0.03 0.03 0.03 0.03 0.03 0.03 0.02 0.02 0.01 0.01 0.00 0.00 0.00 0.00 0.01 0.01
0.00 0.00 0.00 0.00 0.00 0.00 0.00 0.00 0.00 0.00 0.00 0.00 0.00 0.00 0.00 0.01 0.01 0.01 0.01 0.02 0.02 0.02 0.04 0.04 0.03 0.03 0.03 0.04 0.04 0.03 0.03 0.02 0.02 0.02 0.01 0.01 0.00 0.00 0.00 0.00 0.00 0.01 0.01
0.01 0.01 0.00 0.00 0.00 0.01 0.00 0.00 0.00 0.01 0.01 0.00 0.00 0.00 0.00 0.00 0.01 0.01 0.01 0.01 0.02 0.02 0.02 0.03 0.03 0.02 0.02 0.02 0.03 0.04 0.04 0.03 0.02 0.01 0.01 0.00 0.00 0.00 0.00 0.00 0.00 0.00 0.01
0.01 0.01 0.00 0.00 0.01 0.01 0.01 0.00 0.00 0.01 0.01 0.00 0.00 0.00 0.00 0.00 0.00 0.01 0.02 0.02 0.02 0.02 0.02 0.02 0.02 0.02 0.02 0.02 0.02 0.02 0.03 0.03 0.03 0.03 0.02 0.01 0.00 0.00 0.00 0.00 0.00 0.00 0.00
0.01 0.01 0.01 0.01 0.01 0.01 0.01 0.00 0.00 0.00 0.00 0.00 0.00 0.00 0.00 0.00 0.00 0.00 0.01 0.02 0.02 0.02 0.02 0.02 0.02 0.01 0.01 0.01 0.01 0.01 0.01 0.02 0.02 0.02 0.02 0.02 0.01 0.01 0.01 0.00 0.00 0.00 0.00
0.02 0.02 0.02 0.02 0.01 0.01 0.01 0.01 0.01 0.00 0.00 0.00 0.00 0.00 0.00 0.00 0.00 0.00 0.00 0.01 0.02 0.02 0.02 0.02 0.02 0.02 0.02 0.01 0.01 0.01 0.01 0.01 0.01 0.01 0.01 0.01 0.01 0.01 0.01 0.01 0.01 0.01 0.00
0.03 0.03 0.03 0.03 0.02 0.02 0.02 0.01 0.01 0.00 0.00 0.00 0.00 0.00 0.00 0.00 0.00 0.00 0.00 0.00 0.01 0.01 0.02 0.02 0.02 0.02 0.02 0.02 0.02 0.01 0.01 0.01 0.01 0.01 0.01 0.01 0.01 0.01 0.00 0.01 0.01 0.01 0.01
0.04 0.03 0.03 0.02 0.02 0.02 0.01 0.01 0.01 0.01 0.01 0.01 0.01 0.01 0.01 0.01 0.01 0.01 0.01 0.01 0.00 0.01 0.01 0.02 0.02 0.02 0.02 0.02 0.02 0.02 0.02 0.01 0.01 0.02 0.02 0.01 0.01 0.01 0.00 0.00 0.00 0.01 0.00
0.03 0.03 0.03 0.02 0.01 0.01 0.01 0.01 0.01 0.01 0.01 0.01 0.01 0.01 0.01 0.01 0.01 0.01 0.01 0.01 0.01 0.00 0.01 0.02 0.02 0.02 0.02 0.02 0.02 0.02 0.02 0.02 0.01 0.02 0.02 0.02 0.01 0.01 0.01 0.01 0.01 0.01 0.01
0.02 0.03 0.03 0.02 0.01 0.01 0.01 0.01 0.01 0.01 0.01 0.01 0.01 0.01 0.01 0.01 0.02 0.01 0.01 0.01 0.01 0.01 0.01 0.01 0.02 0.02 0.02 0.02 0.02 0.02 0.02 0.02 0.01 0.01 0.01 0.01 0.01 0.01 0.01 0.01 0.01 0.01 0.01
0.02 0.02 0.02 0.02 0.02 0.02 0.02 0.02 0.02 0.01 0.01 0.01 0.00 0.01 0.01 0.01 0.01 0.01 0.01 0.01 0.01 0.01 0.01 0.01 0.02 0.02 0.02 0.02 0.02 0.02 0.02 0.02 0.02 0.01 0.01 0.01 0.01 0.01 0.01 0.01 0.01 0.01 0.01
0.01 0.01 0.01 0.02 0.02 0.02 0.02 0.01 0.01 0.01 0.01 0.01 0.01 0.00 0.00 0.00 0.01 0.01 0.01 0.01 0.01 0.01 0.01 0.01 0.01 0.02 0.02 0.02 0.02 0.01 0.01 0.01 0.01 0.01 0.02 0.01 0.01 0.01 0.01 0.02 0.02 0.01 0.01
0.01 0.01 0.01 0.01 0.01 0.01 0.01 0.01 0.02 0.02 0.02 0.01 0.01 0.01 0.00 0.00 0.00 0.00 0.00 0.01 0.01 0.01 0.00 0.00 0.01 0.01 0.02 0.02 0.02 0.02 0.02 0.01 0.01 0.01 0.01 0.02 0.02 0.02 0.02 0.02 0.02 0.02 0.02
0.03 0.03 0.03 0.02 0.02 0.01 0.01 0.01 0.02 0.02 0.02 0.02 0.02 0.01 0.00 0.00 0.00 0.00 0.01 0.01 0.01 0.01 0.01 0.01 0.01 0.01 0.02 0.02 0.02 0.02 0.02 0.02 0.02 0.01 0.02 0.02 0.02 0.02 0.02 0.03 0.03 0.03 0.03
0.05 0.05 0.05 0.04 0.03 0.02 0.01 0.01 0.02 0.03 0.03 0.03 0.02 0.01 0.01 0.01 0.01 0.01 0.01 0.01 0.01 0.01 0.01 0.01 0.01 0.02 0.02 0.03 0.03 0.03 0.03 0.03 0.02 0.02 0.02 0.02 0.03 0.03 0.03 0.03 0.04 0.04 0.04
0.05 0.04 0.04 0.04 0.04 0.03 0.02 0.02 0.03 0.03 0.04 0.03 0.02 0.02 0.01 0.01 0.01 0.01 0.01 0.01 0.01 0.01 0.01 0.01 0.02 0.02 0.03 0.03 0.03 0.04 0.03 0.03 0.03 0.02 0.02 0.02 0.02 0.02 0.02 0.02 0.02 0.02 0.02
0.03 0.03 0.03 0.03 0.03 0.03 0.03 0.02 0.03 0.03 0.03 0.03 0.03 0.02 0.02 0.02 0.01 0.01 0.01 0.01 0.01 0.01 0.02 0.02 0.02 0.03 0.03 0.04 0.03 0.04 0.04 0.04 0.03 0.02 0.02 0.02 0.02 0.02 0.02 0.02 0.02 0.01 0.01
0.03 0.03 0.03 0.03 0.03 0.03 0.03 0.03 0.04 0.04 0.03 0.02 0.03 0.03 0.03 0.02 0.02 0.02 0.01 0.02 0.02 0.01 0.02 0.03 0.04 0.04 0.05 0.05 0.04 0.04 0.04 0.04 0.03 0.02 0.02 0.02 0.02 0.02 0.02 0.02 0.02 0.01 0.01
0.03 0.03 0.03 0.03 0.04 0.03 0.03 0.04 0.05 0.04 0.03 0.03 0.02 0.02 0.03 0.03 0.03 0.02 0.02 0.02 0.02 0.03 0.03 0.03 0.03 0.03 0.04 0.05 0.05 0.04 0.04 0.04 0.03 0.03 0.02 0.02 0.02 0.02 0.02 0.02 0.02 0.01 0.00
0.03 0.02 0.02 0.03 0.03 0.04 0.04 0.04 0.06 0.05 0.04 0.04 0.04 0.04 0.03 0.03 0.04 0.03 0.02 0.02 0.03 0.03 0.04 0.05 0.04 0.03 0.03 0.03 0.04 0.05 0.05 0.04 0.03 0.03 0.03 0.02 0.02 0.02 0.03 0.03 0.02 0.01 0.01
0.03 0.02 0.02 0.02 0.02 0.03 0.04 0.04 0.06 0.06 0.05 0.05 0.05 0.07 0.06 0.05 0.04 0.04 0.03 0.04 0.04 0.04 0.04 0.04 0.04 0.04 0.03 0.03 0.04 0.05 0.05 0.05 0.05 0.04 0.03 0.02 0.03 0.03 0.03 0.03 0.03 0.02 0.02
0.02 0.01 0.01 0.02 0.02 0.02 0.03 0.04 0.06 0.06 0.05 0.05 0.06 0.08 0.08 0.08 0.06 0.05 0.05 0.06 0.07 0.05 0.05 0.04 0.04 0.04 0.04 0.04 0.05 0.06 0.06 0.05 0.05 0.05 0.04 0.03 0.03 0.04 0.04 0.04 0.03 0.03 0.03
0.02 0.01 0.01 0.01 0.01 0.02 0.02 0.03 0.05 0.05 0.04 0.05 0.05 0.06 0.06 0.08 0.09 0.07 0.06 0.07 0.09 0.07 0.05 0.04 0.04 0.04 0.04 0.03 0.04 0.05 0.06 0.06 0.06 0.05 0.05 0.05 0.05 0.05 0.05 0.05 0.04 0.03 0.03
0.02 0.02 0.02 0.02 0.02 0.02 0.02 0.03 0.04 0.04 0.04 0.04 0.05 0.05 0.05 0.06 0.08 0.09 0.09 0.09 0.09 0.09 0.06 0.05 0.04 0.04 0.04 0.04 0.04 0.04 0.04 0.05 0.05 0.06 0.06 0.06 0.06 0.06 0.05 0.05 0.04 0.04 0.03
0.03 0.03 0.02 0.02 0.02 0.02 0.02 0.03 0.03 0.04 0.03 0.03 0.04 0.04 0.04 0.06 0.07 0.08 0.09 0.10 0.10 0.10 0.08 0.07 0.05 0.04 0.04 0.04 0.03 0.03 0.04 0.04 0.04 0.05 0.06 0.06 0.06 0.06 0.06 0.05 0.04 0.04 0.04
MSLP
1007.78 1008.26 1008.78 1009.29 1009.77 1010.18 1010.53 1010.84 1011.13 1011.45 1011.82 1012.28 1012.83 1013.47 1014.16 1014.87 1015.56 1016.20 1016.78 1017.30 1017.78 1018.25 1018.74 1019.29 1019.92 1020.62 1021.38 1022.18 1023.00 1023.80 1024.56 1025.27 1025.92 1026.51 1027.06 1027.55 1027.98 1028.36 1028.66 1028.88 1029.01 1029.06 1029.04
1007.25 1007.71 1008.23 1008.75 1009.25 1009.70 1010.09 1010.45 1010.79 1011.14 1011.55 1012.03 1012.60 1013.24 1013.93 1014.64 1015.33 1015.97 1016.55 1017.08 1017.57 1018.05 1018.56 1019.11 1019.73 1020.41 1021.15 1021.93 1022.72 1023.50 1024.25 1024.95 1025.62 1026.24 1026.82 1027.37 1027.88 1028.33 1028.72 1029.03 1029.26 1029.39 1029.43
1006.67 1007.06 1007.53 1008.04 1008.56 1009.06 1009.52 1009.95 1010.36 1010.78 1011.25 1011.77 1012.35 1012.99 1013.68 1014.39 1015.07 1015.72 1016.32 1016.86 1017.38 1017.88 1018.39 1018.94 1019.55 1020.21 1020.91 1021.65 1022.40 1023.14 1023.86 1024.55 1025.21 1025.84 1026.45 1027.03 1027.60 1028.12 1028.59 1028.99 1029.30 1029.52 1029.65
1006.11 1006.38 1006.77 1007.23 1007.75 1008.29 1008.82 1009.34 1009.85 1010.37 1010.90 1011.47 1012.08 1012.74 1013.42 1014.12 1014.81 1015.46 1016.08 1016.65 1017.19 1017.71 1018.24 1018.80 1019.39 1020.03 1020.69 1021.39 1022.09 1022.78 1023.47 1024.13 1024.77 1025.39 1026.01 1026.61 1027.20 1027.76 1028.28 1028.75 1029.14 1029.44 1029.66
1005.67 1005.77 1006.03 1006.41 1006.90 1007.45 1008.05 1008.66 1009.28 1009.89 1010.51 1011.14 1011.79 1012.47 1013.16 1013.86 1014.54 1015.21 1015.84 1016.44 1017.01 1017.57 1018.12 1018.68 1019.26 1019.87 1020.51 1021.16 1021.82 1022.47 1023.12 1023.75 1024.36 1024.97 1025.57 1026.16 1026.74 1027.31 1027.85 1028.35 1028.80 1029.17 1029.47
1005.45 1005.34 1005.42 1005.67 1006.09 1006.63 1007.27 1007.95 1008.66 1009.37 1010.08 1010.78 1011.48 1012.19 1012.89 1013.60 1014.29 1014.97 1015.63 1016.26 1016.86 1017.44 1018.01 1018.58 1019.15 1019.75 1020.35 1020.98 1021.60 1022.22 1022.84 1023.44 1024.03 1024.61 1025.17 1025.73 1026.29 1026.83 1027.36 1027.86 1028.33 1028.74 1029.10
1005.51 1005.17 1005.03 1005.12 1005.42 1005.91 1006.53 1007.26 1008.04 1008.83 1009.62 1010.40 1011.15 1011.90 1012.63 1013.35 1014.06 1014.76 1015.44 1016.09 1016.71 1017.31 1017.90 1018.47 1019.05 1019.63 1020.22 1020.82 1021.42 1022.03 1022.63 1023.21 1023.78 1024.32 1024.85 1025.36 1025.87 1026.36 1026.85 1027.33 1027.79 1028.23 1028.62
1005.91 1005.31 1004.94 1004.82 1004.97 1005.35 1005.93 1006.66 1007.46 1008.31 1009.16 1010.00 1010.81 1011.60 1012.37 1013.12 1013.85 1014.57 1015.27 1015.94 1016.58 1017.19 1017.78 1018.36 1018.92 1019.49 1020.07 1020.66 1021.26 1021.86 1022.45 1023.03 1023.58 1024.10 1024.59 1025.05 1025.50 1025.94 1026.37 1026.81 1027.25 1027.68 1028.10
1006.62 1005.78 1005.17 1004.84 1004.81 1005.05 1005.53 1006.20 1007.00 1007.86 1008.74 1009.62 1010.48 1011.31 1012.12 1012.90 1013.66 1014.40 1015.11 1015.80 1016.45 1017.06 1017.65 1018.21 1018.77 1019.32 1019.89 1020.48 1021.07 1021.68 1022.28 1022.85 1023.40 1023.90 1024.36 1024.78 1025.18 1025.56 1025.94 1026.33 1026.74 1027.17 1027.60
1007.62 1006.56 1005.74 1005.20 1004.97 1005.05 1005.39 1005.96 1006.69 1007.52 1008.40 1009.29 1010.18 1011.04 1011.88 1012.70 1013.49 1014.25 1014.97 1015.66 1016.31 1016.91 1017.49 1018.03 1018.57 1019.11 1019.67 1020.25 1020.85 1021.46 1022.06 1022.65 1023.20 1023.69 1024.14 1024.53 1024.88 1025.22 1025.56 1025.92 1026.31 1026.74 1027.18
1008.83 1007.62 1006.62 1005.90 1005.48 1005.38 1005.56 1005.99 1006.61 1007.36 1008.19 1009.06 1009.95 1010.82 1011.69 1012.53 1013.34 1014.11 1014.85 1015.53 1016.17 1016.76 1017.31 1017.83 1018.34 1018.86 1019.40 1019.97 1020.57 1021.19 1021.80 1022.40 1022.95 1023.45 1023.88 1024.26 1024.59 1024.91 1025.23 1025.57 1025.96 1026.39 1026.85
1010.17 1008.88 1007.76 1006.90 1006.31 1006.03 1006.04 1006.30 1006.78 1007.41 1008.15 1008.96 1009.81 1010.67 1011.54 1012.38 1013.20 1013.99 1014.73 1015.41 1016.03 1016.60 1017.13 1017.62 1018.11 1018.60 1019.12 1019.68 1020.27 1020.88 1021.50 1022.10 1022.66 1023.15 1023.59 1023.96 1024.29 1024.60 1024.91 1025.26 1025.65 1026.10 1026.58
1011.59 1010.28 1009.11 1008.14 1007.43 1006.99 1006.82 1006.90 1007.20 1007.68 1008.30 1009.01 1009.78 1010.60 1011.43 1012.27 1013.09 1013.87 1014.61 1015.28 1015.90 1016.45 1016.95 1017.42 1017.89 1018.36 1018.86 1019.39 1019.97 1020.57 1021.18 1021.77 1022.32 1022.82 1023.26 1023.63 1023.96 1024.27 1024.59 1024.95 1025.35 1025.82 1026.33
1013.04 1011.76 1010.58 1009.57 1008.76 1008.18 1007.84 1007.74 1007.86 1008.16 1008.62 1009.20 1009.87 1010.61 1011.39 1012.18 1012.98 1013.75 1014.47 1015.15 1015.75 1016.30 1016.79 1017.25 1017.69 1018.14 1018.62 1019.14 1019.69 1020.27 1020.86 1021.44 1021.98 1022.47 1022.90 1023.27 1023.61 1023.92 1024.25 1024.61 1025.03 1025.51 1026.03
1014.48 1013.27 1012.13 1011.10 1010.23 1009.54 1009.06 1008.78 1008.71 1008.82 1009.10 1009.52 1010.05 1010.68 1011.38 1012.11 1012.87 1013.61 1014.32 1014.98 1015.59 1016.13 1016.62 1017.08 1017.52 1017.96 1018.42 1018.92 1019.45 1020.00 1020.56 1021.11 1021.63 1022.10 1022.52 1022.89 1023.22 1023.54 1023.87 1024.23 1024.65 1025.12 1025.64
1015.88 1014.77 1013.69 1012.68 1011.77 1011.00 1010.38 1009.94 1009.69 1009.61 1009.70 1009.94 1010.32 1010.81 1011.40 1012.05 1012.74 1013.44 1014.13 1014.78 1015.38 1015.93 1016.44 1016.90 1017.34 1017.78 1018.24 1018.72 1019.22 1019.75 1020.28 1020.80 1021.29 1021.74 1022.14 1022.50 1022.83 1023.14 1023.46 1023.81 1024.20 1024.65 1025.15
1017.24 1016.23 1015.22 1014.23 1013.31 1012.47 1011.75 1011.17 1010.75 1010.48 1010.38 1010.44 1010.65 1011.00 1011.45 1012.00 1012.61 1013.25 1013.90 1014.54 1015.14 1015.70 1016.21 1016.69 1017.15 1017.60 1018.05 1018.51 1019.00 1019.50 1020.00 1020.49 1020.95 1021.38 1021.77 1022.11 1022.42 1022.72 1023.03 1023.35 1023.71 1024.11 1024.56
1018.56 1017.63 1016.68 1015.72 1014.79 1013.92 1013.11 1012.42 1011.85 1011.42 1011.15 1011.03 1011.06 1011.24 1011.56 1011.98 1012.49 1013.06 1013.66 1014.27 1014.86 1015.42 1015.95 1016.44 1016.91 1017.37 1017.82 1018.28 1018.74 1019.22 1019.69 1020.16 1020.60 1021.02 1021.39 1021.73 1022.03 1022.31 1022.59 1022.88 1023.20 1023.55 1023.93
1019.81 1018.95 1018.05 1017.13 1016.21 1015.31 1014.45 1013.67 1012.98 1012.42 1011.98 1011.70 1011.57 1011.59 1011.75 1012.05 1012.45 1012.93 1013.46 1014.02 1014.59 1015.14 1015.67 1016.17 1016.65 1017.11 1017.56 1018.00 1018.45 1018.91 1019.36 1019.81 1020.23 1020.64 1021.01 1021.34 1021.65 1021.92 1022.18 1022.44 1022.71 1023.00 1023.31
1021.00 1020.19 1019.34 1018.46 1017.55 1016.65 1015.77 1014.93 1014.16 1013.49 1012.93 1012.50 1012.22 1012.08 1012.10 1012.25 1012.53 1012.91 1013.36 1013.86 1014.39 1014.91 1015.43 1015.92 1016.39 1016.84 1017.27 1017.70 1018.13 1018.56 1019.00 1019.43 1019.85 1020.25 1020.62 1020.97 1021.28 1021.55 1021.81 1022.04 1022.27 1022.51 1022.76
1022.12 1021.35 1020.55 1019.71 1018.84 1017.96 1017.08 1016.22 1015.40 1014.66 1014.00 1013.46 1013.05 1012.78 1012.65 1012.67 1012.82 1013.09 1013.44 1013.87 1014.33 1014.81 1015.29 1015.75 1016.20 1016.62 1017.03 1017.43 1017.82 1018.22 1018.63 1019.05 1019.46 1019.86 1020.24 1020.59 1020.92 1021.20 1021.46 1021.69 1021.90 1022.10 1022.30
1023.17 1022.45 1021.69 1020.91 1020.09 1019.25 1018.40 1017.56 1016.73 1015.95 1015.23 1014.61 1014.09 1013.70 1013.45 1013.34 1013.37 1013.52 1013.77 1014.10 1014.48 1014.90 1015.32 1015.73 1016.13 1016.51 1016.87 1017.22 1017.58 1017.94 1018.31 1018.69 1019.08 1019.47 1019.86 1020.22 1020.56 1020.86 1021.12 1021.35 1021.56 1021.75 1021.93
1024.15 1023.47 1022.78 1022.06 1021.32 1020.54 1019.75 1018.94 1018.14 1017.35 1016.61 1015.93 1015.34 1014.86 1014.50 1014.28 1014.18 1014.22 1014.36 1014.59 1014.88 1015.21 1015.56 1015.90 1016.23 1016.55 1016.85 1017.14 1017.44 1017.74 1018.06 1018.40 1018.76 1019.13 1019.50 1019.86 1020.20 1020.51 1020.78 1021.03 1021.24 1021.43 1021.60
1025.06 1024.44 1023.82 1023.18 1022.51 1021.82 1021.09 1020.35 1019.59 1018.83 1018.09 1017.39 1016.75 1016.20 1015.76 1015.44 1015.25 1015.17 1015.20 1015.33 1015.52 1015.76 1016.02 1016.28 1016.53 1016.77 1017.00 1017.22 1017.44 1017.67 1017.93 1018.21 1018.52 1018.84 1019.18 1019.52 1019.84 1020.15 1020.43 1020.68 1020.90 1021.10 1021.29
1025.91 1025.36 1024.81 1024.24 1023.66 1023.05 1022.40 1021.73 1021.03 1020.31 1019.59 1018.90 1018.24 1017.66 1017.15 1016.76 1016.47 1016.30 1016.23 1016.26 1016.35 1016.49 1016.65 1016.83 1017.00 1017.16 1017.31 1017.45 1017.59 1017.75 1017.93 1018.14 1018.38 1018.64 1018.93 1019.22 1019.51 1019.80 1020.06 1020.30 1020.53 1020.74 1020.94
1026.70 1026.22 1025.73 1025.23 1024.72 1024.19 1023.62 1023.02 1022.39 1021.72 1021.04 1020.37 1019.71 1019.11 1018.57 1018.12 1017.77 1017.51 1017.35 1017.28 1017.28 1017.32 1017.40 1017.49 1017.58 1017.66 1017.74 1017.81 1017.88 1017.97 1018.08 1018.21 1018.37 1018.56 1018.77 1019.00 1019.23 1019.47 1019.70 1019.92 1020.14 1020.34 1020.54
Thickness
5556 5561 5565 5569 5573 5576 5580 5583 5585 5587 5589 5591 5592 5594 5595 5597 5598 5600 5602 5603 5604 5605 5605 5605 5604 5604 5604 5603 5602 5600 5597 5594 5594 5592 5589 5589 5590 5591 5591 5591 5591 5591 5590
5542 5547 5552 5556 5560 5564 5568 5571 5574 5577 5579 5582 5583 5585 5586 5587 5589 5591 5593 5595 5596 5597 5597 5597 5596 5596 5596 5595 5594 5593 5590 5588 5587 5585 5582 5580 5580 5581 5582 5582 5582 5581 5581
5530 5535 5539 5543 5547 5552 5556 5561 5564 5567 5569 5572 5573 5574 5575 5577 5579 5581 5584 5586 5587 5589 5589 5589 5589 5589 5589 5588 5587 5587 5585 5582 5579 5579 5578 5574 5574 5572 5572 5572 5572 5572 5572
5518 5523 5528 5532 5535 5540 5545 5549 5553 5556 5559 5561 5563 5565 5567 5568 5570 5572 5574 5576 5578 5580 5581 5581 5582 5581 5581 5581 5580 5580 5579 5577 5574 5571 5571 5571 5570 5566 5563 5563 5563 5563 5562
5506 5510 5515 5520 5524 5528 5532 5537 5541 5544 5548 5550 5553 5555 5557 5558 5560 5562 5564 5566 5569 5570 5572 5572 5573 5573 5573 5573 5573 5572 5571 5571 5569 5566 5564 5562 5560 5560 5557 5555 5553 5553 5553
5492 5497 5502 5506 5510 5515 5520 5524 5529 5533 5536 5539 5542 5545 5547 5548 5550 5552 5554 5556 5559 5561 5562 5563 5564 5565 5565 5565 5565 5564 5563 5563 5562 5560 5559 5557 5555 5553 5551 5548 5545 5544 5544
5478 5483 5488 5493 5497 5501 5506 5511 5516 5520 5524 5528 5531 5534 5537 5539 5541 5543 5545 5547 5549 5551 5553 5554 5555 5556 5557 5557 5556 5555 5555 5554 5554 5553 5552 5552 5551 5549 5546 5542 5537 5535 5535
5464 5469 5475 5479 5483 5488 5493 5498 5503 5508 5512 5516 5519 5523 5526 5528 5531 5533 5535 5538 5540 5542 5544 5545 5546 5547 5548 5548 5547 5546 5546 5546 5545 5545 5544 5543 5543 5542 5541 5538 5533 5528 5527
5449 5454 5460 5465 5470 5475 5480 5485 5490 5495 5499 5503 5507 5511 5514 5517 5520 5522 5525 5527 5530 5532 5534 5535 5536 5537 5538 5538 5538 5537 5537 5537 5537 5536 5536 5535 5534 5534 5534 5532 5530 5526 5523
5435 5440 5445 5450 5456 5460 5465 5471 5476 5481 5486 5490 5494 5499 5502 5505 5508 5511 5514 5517 5519 5521 5523 5525 5527 5528 5528 5529 5529 5529 5528 5528 5528 5528 5527 5526 5525 5524 5524 5523 5522 5521 5519
5421 5426 5431 5435 5441 5447 5452 5457 5462 5467 5472 5477 5482 5486 5490 5493 5496 5500 5503 5506 5508 5511 5513 5515 5517 5518 5519 5519 5520 5520 5519 5519 5519 5519 5519 5518 5517 5516 5515 5514 5513 5511 5510
5408 5412 5416 5421 5427 5433 5438 5443 5448 5453 5458 5464 5469 5473 5477 5481 5485 5488 5492 5495 5498 5500 5503 5505 5507 5508 5509 5510 5511 5511 5511 5510 5511 5511 5510 5510 5508 5507 5506 5505 5504 5503 5502
5396 5399 5403 5408 5413 5419 5424 5430 5435 5441 5446 5451 5456 5461 5465 5469 5473 5477 5480 5484 5487 5489 5492 5495 5497 5498 5500 5501 5502 5502 5503 5503 5502 5502 5502 5502 5500 5500 5498 5498 5496 5495 5494
5383 5387 5390 5395 5400 5405 5410 5416 5422 5428 5433 5438 5444 5449 5453 5457 5461 5465 5469 5473 5475 5478 5481 5484 5487 5489 5490 5491 5493 5493 5494 5494 5493 5493 5493 5493 5493 5493 5491 5490 5488 5486 5484
5373 5376 5379 5383 5387 5392 5397 5403 5409 5415 5421 5426 5431 5436 5441 5445 5450 5454 5458 5461 5464 5467 5470 5473 5476 5478 5480 5482 5483 5484 5485 5484 5484 5484 5484 5485 5485 5485 5484 5483 5481 5479 5477
5361 5365 5368 5372 5376 5380 5386 5392 5398 5403 5408 5414 5419 5424 5428 5433 5437 5442 5446 5449 5453 5456 5459 5462 5465 5468 5471 5473 5474 5475 5475 5475 5475 5475 5475 5475 5475 5476 5476 5475 5474 5473 5470
5349 5353 5357 5360 5364 5369 5375 5380 5386 5392 5397 5402 5407 5411 5416 5420 5425 5430 5434 5437 5441 5444 5447 5451 5454 5457 5460 5462 5464 5464 5465 5465 5466 5466 5466 5466 5466 5466 5466 5465 5465 5464 5463
5338 5342 5346 5350 5354 5358 5364 5370 5375 5381 5386 5391 5396 5400 5404 5408 5412 5417 5421 5425 5429 5432 5436 5440 5443 5446 5449 5452 5453 5454 5454 5455 5455 5456 5456 5457 5457 5457 5457 5456 5454 5454 5453
5329 5332 5336 5339 5343 5348 5353 5359 5364 5369 5374 5379 5384 5388 5392 5397 5401 5405 5410 5413 5417 5421 5425 5429 5432 5436 5438 5440 5442 5443 5443 5444 5445 5446 5447 5448 5448 5449 5448 5447 5445 5444 5443
5321 5324 5327 5329 5334 5338 5343 5348 5353 5358 5362 5367 5372 5378 5382 5386 5390 5395 5398 5402 5406 5410 5414 5418 5421 5424 5427 5429 5431 5432 5433 5435 5435 5436 5437 5439 5439 5439 5438 5438 5437 5435 5434
5313 5316 5318 5321 5324 5328 5332 5337 5342 5346 5351 5357 5362 5368 5372 5376 5380 5384 5388 5391 5395 5399 5403 5406 5410 5412 5415 5417 5419 5421 5423 5425 5425 5426 5427 5429 5429 5430 5429 5429 5428 5428 5425
5304 5308 5310 5312 5315 5318 5323 5327 5332 5336 5341 5347 5353 5358 5362 5366 5371 5374 5378 5381 5384 5387 5390 5394 5397 5400 5402 5405 5407 5409 5412 5415 5416 5417 5418 5419 5420 5420 5420 5419 5419 5417 5414
5295 5298 5300 5303 5306 5309 5313 5317 5322 5327 5332 5337 5342 5347 5352 5355 5359 5363 5367 5370 5373 5376 5379 5382 5385 5387 5390 5392 5394 5398 5401 5404 5406 5408 5409 5410 5410 5410 5409 5409 5408 5406 5404
5286 5290 5292 5295 5298 5302 5305 5309 5313 5318 5322 5327 5332 5336 5341 5345 5349 5352 5355 5359 5362 5365 5369 5371 5374 5376 5378 5380 5382 5385 5388 5391 5394 5395 5397 5398 5399 5399 5399 5398 5396 5395 5394
5279 5282 5284 5287 5290 5293 5297 5301 5305 5309 5313 5317 5322 5326 5330 5334 5338 5341 5344 5347 5351 5354 5359 5361 5363 5365 5367 5370 5373 5375 5377 5380 5382 5384 5385 5386 5386 5386 5386 5386 5385 5385 5384
5271 5274 5276 5279 5282 5285 5288 5292 5296 5300 5303 5308 5312 5316 5320 5324 5328 5332 5335 5338 5341 5345 5349 5352 5354 5357 5359 5361 5363 5365 5367 5370 5372 5373 5374 5375 5375 5376 5376 5376 5375 5374 5373